{"data":{"norad_id":58535,"epoch":"2026-05-25T01:45:22.289760Z","epoch_age_seconds":68790,"freshness":"FRESH","line1":"1 58535U 23192E   26145.07317465  .00000670  00000+0  30957-4 0  9994","line2":"2 58535  53.1609  66.9851 0001095  83.6146 276.4982 15.34388728137693","mean_motion":15.34388728,"eccentricity":0.0001095,"inclination_deg":53.1609,"raan_deg":66.9851,"arg_perigee_deg":83.6146,"mean_anomaly_deg":276.4982,"bstar":3.0957e-5,"rev_number":13769,"period_min":93.848447510232,"perigee_km":461.98766749679,"apogee_km":463.48581884655,"semimajor_km":6840.8737431717,"source":"CELESTRAK","updated_at":"2026-05-25T13:38:18.660940Z"}}